H1 CPF 2 NER 2025 11 7 9 311 01 glonass140 H2 1903001 9140 44299 2025 11 7 0 0 0 2025 11 10 23 45 0 900 1 1 0 0 0 1 H9 10 0 60986 0.00000 0 -15701144.244 14953764.416 -13407706.978 10 0 60986 900.00000 0 -16960217.146 15757697.952 -10679270.006 10 0 60986 1800.00000 0 -17862573.297 16464508.133 -7743063.070 10 0 60986 2700.00000 0 -18411122.997 17016833.300 -4656241.410 10 0 60986 3600.00000 0 -18621468.690 17360889.579 -1478869.640 10 0 60986 4500.00000 0 -18521033.802 17448895.500 1727254.623 10 0 60986 5400.00000 0 -18147707.865 17241256.892 4899809.148 10 0 60986 6300.00000 0 -17548066.808 16708419.305 7977163.180 10 0 60986 7200.00000 0 -16775245.093 15832309.485 10899576.855 10 0 60986 8100.00000 0 -15886550.828 14607305.027 13610360.260 10 0 60986 9000.00000 0 -14940925.407 13040691.396 16056969.563 10 0 60986 9900.00000 0 -13996355.312 11152587.199 18192019.209 10 0 60986 10800.00000 0 -13107345.167 8975340.844 19974191.243 10 0 60986 11700.00000 0 -12322558.012 6552423.711 21369025.075 10 0 60986 12600.00000 0 -11682721.257 3936865.713 22349573.541 10 0 60986 13500.00000 0 -11218885.291 1189297.809 22896913.807 10 0 60986 14400.00000 0 -10951106.745 -1624318.035 23000504.387 10 0 60986 15300.00000 0 -10887610.572 -4435178.364 22658382.346 10 0 60986 16200.00000 0 -11024465.233 -7174245.359 21877197.554 10 0 60986 17100.00000 0 -11345784.038 -9774865.076 20672083.650 10 0 60986 18000.00000 0 -11824443.993 -12175289.837 19066368.107 10 0 60986 18900.00000 0 -12423292.136 -14321001.731 17091126.566 10 0 60986 19800.00000 0 -13096789.209 -16166742.176 14784589.285 10 0 60986 20700.00000 0 -13793022.262 -17678164.339 12191410.203 10 0 60986 21600.00000 0 -14456002.351 -18833040.518 9361811.714 10 0 60986 22500.00000 0 -15028151.308 -19621974.745 6350620.637 10 0 60986 23400.00000 0 -15452873.332 -20048591.144 3216213.164 10 0 60986 24300.00000 0 -15677103.216 -20129190.293 19388.563 10 0 60986 25200.00000 0 -15653723.506 -19891887.954 -3177806.976 10 0 60986 26100.00000 0 -15343748.039 -19375272.251 -6313283.621 10 0 60986 27000.00000 0 -14718178.696 -18626635.680 -9326114.840 10 0 60986 27900.00000 0 -13759455.700 -17699856.317 -12157724.250 10 0 60986 28800.00000 0 -12462438.685 -16653017.600 -14753028.791 10 0 60986 29700.00000 0 -10834875.395 -15545867.121 -17061515.505 10 0 60986 30600.00000 0 -8897336.370 -14437221.899 -19038230.446 10 0 60986 31500.00000 0 -6682616.514 -13382429.831 -20644659.953 10 0 60986 32400.00000 0 -4234626.856 -12430994.756 -21849486.746 10 0 60986 33300.00000 0 -1606821.309 -11624465.616 -22629205.769 10 0 60986 34200.00000 0 1139777.098 -10994679.049 -22968587.483 10 0 60986 35100.00000 0 3938869.180 -10562429.759 -22860979.334 10 0 60986 36000.00000 0 6721396.898 -10336624.914 -22308439.269 10 0 60986 36900.00000 0 9418180.589 -10313958.293 -21321698.445 10 0 60986 37800.00000 0 11962566.523 -10479117.923 -19919953.629 10 0 60986 38700.00000 0 14292974.702 -10805518.217 -18130493.085 10 0 60986 39600.00000 0 16355240.741 -11256525.425 -15988163.142 10 0 60986 40500.00000 0 18104654.320 -11787124.093 -13534685.783 10 0 60986 41400.00000 0 19507609.394 -12345953.488 -10817840.685 10 0 60986 42300.00000 0 20542797.664 -12877627.063 -7890528.018 10 0 60986 43200.00000 0 21201896.155 -13325235.950 -4809730.773 10 0 60986 44100.00000 0 21489721.188 -13632929.642 -1635397.534 10 0 60986 45000.00000 0 21423843.653 -13748463.706 1570731.671 10 0 60986 45900.00000 0 21033683.349 -13625605.973 4746332.716 10 0 60986 46800.00000 0 20359122.185 -13226298.753 7829713.601 10 0 60986 47700.00000 0 19448696.245 -12522485.251 10761015.213 10 0 60986 48600.00000 0 18357444.346 -11497522.809 13483372.878 10 0 60986 49500.00000 0 17144504.787 -10147123.258 15944016.072 10 0 60986 50400.00000 0 15870562.199 -8479780.759 18095285.212 10 0 60986 51300.00000 0 14595252.116 -6516669.112 19895546.445 10 0 60986 52200.00000 0 13374632.117 -4291012.650 21309987.650 10 0 60986 53100.00000 0 12258825.022 -1846956.691 22311281.367 10 0 60986 54000.00000 0 11289932.004 762015.938 22880103.043 10 0 60986 54900.00000 0 10500301.797 3475057.250 23005495.740 10 0 60986 55800.00000 0 9911227.220 6226234.460 22685075.248 10 0 60986 56700.00000 0 9532122.329 8947025.047 21925072.320 10 0 60986 57600.00000 0 9360213.619 11568924.551 20740211.548 10 0 60986 58500.00000 0 9380757.479 14026060.484 19153429.165 10 0 60986 59400.00000 0 9567774.393 16257705.470 17195434.795 10 0 60986 60300.00000 0 9885269.054 18210586.656 14904124.871 10 0 60986 61200.00000 0 10288885.391 19840896.551 12323858.101 10 0 60986 62100.00000 0 10727927.382 21115922.475 9504605.960 10 0 60986 63000.00000 0 11147661.091 22015227.240 6500993.570 10 0 60986 63900.00000 0 11491801.362 22531332.017 3371248.682 10 0 60986 64800.00000 0 11705078.523 22669872.831 176078.404 10 0 60986 65700.00000 0 11735776.710 22449223.963 -3022504.981 10 0 60986 66600.00000 0 11538136.183 21899603.776 -6162386.452 10 0 60986 67500.00000 0 11074517.371 21061700.251 -9182555.505 10 0 60986 68400.00000 0 10317234.071 19984873.755 -12024294.493 10 0 60986 69300.00000 0 9249976.918 18725012.505 -14632324.451 10 0 60986 70200.00000 0 7868765.342 17342130.956 -16955885.644 10 0 60986 71100.00000 0 6182385.985 15897812.248 -18949731.265 10 0 60986 72000.00000 0 4212297.174 14452602.569 -20575014.451 10 0 60986 72900.00000 0 1992001.530 13063467.283 -21800050.910 10 0 60986 73800.00000 0 -434088.801 11781416.106 -22600941.970 10 0 60986 74700.00000 0 -3012248.314 10649397.441 -22962045.591 10 0 60986 75600.00000 0 -5681430.342 9700550.576 -22876285.902 10 0 60986 76500.00000 0 -8375573.074 8956889.273 -22345295.013 10 0 60986 77400.00000 0 -11026123.891 8428472.044 -21379384.039 10 0 60986 78300.00000 0 -13564677.168 8113093.759 -19997343.734 10 0 60986 79200.00000 0 -15925615.770 7996511.143 -18226078.346 10 0 60986 80100.00000 0 -18048646.112 8053192.046 -16100079.735 10 0 60986 81000.00000 0 -19881120.968 8247556.115 -13660751.954 10 0 60986 81900.00000 0 -21380053.099 8535653.542 -10955599.563 10 0 60986 82800.00000 0 -22513735.642 8867209.902 -8037295.848 10 0 60986 83700.00000 0 -23262901.892 9187949.465 -4962649.598 10 0 60986 84600.00000 0 -23621376.553 9442097.508 -1791491.256 10 0 60986 85500.00000 0 -23596192.140 9574954.566 1414499.002 10 0 60987 0.00000 0 -23207166.966 9535432.668 4592997.264 10 0 60987 900.00000 0 -22485963.619 9278445.290 7682253.403 10 0 60987 1800.00000 0 -21474669.632 8767049.386 10622291.440 10 0 60987 2700.00000 0 -20223960.796 7974248.498 13356074.700 10 0 60987 3600.00000 0 -18790925.979 6884380.605 15830608.778 10 0 60987 4500.00000 0 -17236645.601 5494032.104 17997962.827 10 0 60987 5400.00000 0 -15623625.916 3812439.414 19816189.747 10 0 60987 6300.00000 0 -14013196.677 1861361.186 21250128.341 10 0 60987 7200.00000 0 -12462980.722 -325573.838 22272073.024 10 0 60987 8100.00000 0 -11024540.498 -2704016.575 22862299.362 10 0 60987 9000.00000 0 -9741298.678 -5220497.846 23009436.444 10 0 60987 9900.00000 0 -8646818.404 -7814413.514 22710679.863 10 0 60987 10800.00000 0 -7763513.495 -10420313.299 21971841.926 10 0 60987 11700.00000 0 -7101841.176 -12970399.684 20807238.449 10 0 60987 12600.00000 0 -6660009.899 -15397134.672 19239414.288 10 0 60987 13500.00000 0 -6424213.629 -17635847.661 17298712.516 10 0 60987 14400.00000 0 -6369382.233 -19627237.518 15022694.822 10 0 60987 15300.00000 0 -6460416.322 -21319665.909 12455423.406 10 0 60987 16200.00000 0 -6653854.714 -22671147.286 9646617.217 10 0 60987 17100.00000 0 -6899904.630 -23650953.100 6650697.788 10 0 60987 18000.00000 0 -7144749.354 -24240763.411 3525742.279 10 0 60987 18900.00000 0 -7333036.245 -24435317.674 332363.253 10 0 60987 19800.00000 0 -7410440.055 -24242537.085 -2867463.509 10 0 60987 20700.00000 0 -7326192.984 -23683112.908 -6011600.597 10 0 60987 21600.00000 0 -7035473.919 -22789577.521 -9038956.522 10 0 60987 22500.00000 0 -6501554.905 -21604896.702 -11890675.515 10 0 60987 23400.00000 0 -5697612.856 -20180641.903 -14511285.948 10 0 60987 24300.00000 0 -4608128.430 -18574819.047 -16849784.547 10 0 60987 25200.00000 0 -3229811.247 -16849444.938 -18860634.796 10 0 60987 26100.00000 0 -1572010.562 -15067973.119 -20504659.555 10 0 60987 27000.00000 0 343407.839 -13292677.362 -21749810.118 10 0 60987 27900.00000 0 2482715.255 -11582102.755 -22571796.379 10 0 60987 28800.00000 0 4801478.516 -9988691.501 -22954565.493 10 0 60987 29700.00000 0 7246176.245 -8556683.113 -22890619.477 10 0 60987 30600.00000 0 9756206.571 -7320377.030 -22381165.295 10 0 60987 31500.00000 0 12266203.291 -6302830.425 -21436094.247 10 0 60987 32400.00000 0 14708564.311 -5515045.448 -20073790.836 10 0 60987 33300.00000 0 17016087.130 -4955679.513 -18320774.610 10 0 60987 34200.00000 0 19124601.318 -4611290.016 -16211181.829 10 0 60987 35100.00000 0 20975487.950 -4457102.177 -13786097.022 10 0 60987 36000.00000 0 22517980.548 -4458266.516 -11092747.576 10 0 60987 36900.00000 0 23711151.141 -4571551.556 -8183577.376 10 0 60987 37800.00000 0 24525498.382 -4747398.858 -5115218.090 10 0 60987 38700.00000 0 24944071.463 -4932252.086 -1947378.762 10 0 60987 39600.00000 0 24963083.260 -5071060.152 1258323.744 10 0 60987 40500.00000 0 24591987.870 -5109847.254 4439569.862 10 0 60987 41400.00000 0 23853020.393 -4998239.949 7534553.706 10 0 60987 42300.00000 0 22780219.557 -4691843.480 10483186.355 10 0 60987 43200.00000 0 21417975.563 -4154366.309 13228262.232 10 0 60987 44100.00000 0 19819165.284 -3359402.740 15716565.805 10 0 60987 45000.00000 0 18042954.020 -2291798.288 17899897.368 10 0 60987 45900.00000 0 16152356.544 -948540.204 19735998.590 10 0 60987 46800.00000 0 14211659.696 660864.358 21189360.830 10 0 60987 47700.00000 0 12283814.012 2514538.580 22231901.635 10 0 60987 48600.00000 0 10427902.597 4578908.713 22843497.572 10 0 60987 49500.00000 0 8696791.721 6809871.864 23012364.248 10 0 60987 50400.00000 0 7135059.726 9154411.028 22735277.175 10 0 60987 51300.00000 0 5777289.014 11552591.272 22017629.942 10 0 60987 52200.00000 0 4646790.770 13939855.415 20873328.940 10 0 60987 53100.00000 0 3754814.152 16249525.195 19324526.649 10 0 60987 54000.00000 0 3100271.756 18415405.432 17401198.268 10 0 60987 54900.00000 0 2669991.879 20374384.271 15140569.129 10 0 60987 55800.00000 0 2439486.415 22068922.393 12586403.065 10 0 60987 56700.00000 0 2374201.865 23449328.400 9788164.410 10 0 60987 57600.00000 0 2431200.809 24475725.942 6800068.827 10 0 60987 58500.00000 0 2561203.153 25119630.575 3680040.422 10 0 60987 59400.00000 0 2710901.183 25365070.230 488594.624 10 0 60987 60300.00000 0 2825450.748 25209201.886 -2712331.980 10 0 60987 61200.00000 0 2851033.115 24662397.966 -5860582.296 10 0 60987 62100.00000 0 2737378.777 23747798.039 -8894986.526 10 0 60987 63000.00000 0 2440145.737 22500343.903 -11756553.345 10 0 60987 63900.00000 0 1923050.653 20965337.828 -14389620.872 10 0 60987 64800.00000 0 1159661.421 19196583.927 -16742944.524 10 0 60987 65700.00000 0 134773.919 17254190.229 -18770700.091 10 0 60987 66600.00000 0 -1154686.946 15202123.422 -20433381.966 10 0 60987 67500.00000 0 -2699281.675 13105618.664 -21698578.616 10 0 60987 68400.00000 0 -4477204.217 11028552.975 -22541609.843 10 0 60987 69300.00000 0 -6454959.107 9030892.288 -22946013.077 10 0 60987 70200.00000 0 -8588540.915 7166319.017 -22903868.974 10 0 60987 71100.00000 0 -10825067.910 5480139.405 -22415959.730 10 0 60987 72000.00000 0 -13104802.586 4007558.048 -21491756.776 10 0 60987 72900.00000 0 -15363475.239 2772391.482 -20149237.858 10 0 60987 73800.00000 0 -17534813.810 1786274.134 -18414536.869 10 0 60987 74700.00000 0 -19553174.304 1048389.107 -16321433.098 10 0 60987 75600.00000 0 -21356161.608 545734.037 -13910689.837 10 0 60987 76500.00000 0 -22887130.797 253909.538 -11229255.317 10 0 60987 77400.00000 0 -24097463.828 138395.538 -8329341.862 10 0 60987 78300.00000 0 -24948526.042 156260.103 -5267401.727 10 0 60987 79200.00000 0 -25413220.304 258226.901 -2103020.198 10 0 60987 80100.00000 0 -25477073.796 391012.323 1102251.607 10 0 60987 81000.00000 0 -25138812.267 499831.875 4286100.658 10 0 60987 81900.00000 0 -24410398.376 530968.493 7386668.408 10 0 60987 82800.00000 0 -23316533.451 434293.058 10343755.265 10 0 60987 83700.00000 0 -21893644.645 165629.733 13099989.290 10 0 60987 84600.00000 0 -20188401.035 -311134.281 15601936.325 10 0 60987 85500.00000 0 -18255821.733 -1022283.867 17801130.161 10 0 60988 0.00000 0 -16157056.094 -1982930.320 19655003.250 10 0 60988 900.00000 0 -13956927.885 -3196142.057 21127701.732 10 0 60988 1800.00000 0 -11721348.680 -4652586.900 22190767.666 10 0 60988 2700.00000 0 -9514703.996 -6330702.814 22823679.820 10 0 60988 3600.00000 0 -7397322.792 -8197389.126 23014241.157 10 0 60988 4500.00000 0 -5423133.278 -10209190.513 22758807.582 10 0 60988 5400.00000 0 -3637601.154 -12313925.207 22062354.108 10 0 60988 6300.00000 0 -2076034.424 -14452690.797 20938377.522 10 0 60988 7200.00000 0 -762323.748 -16562165.401 19408637.457 10 0 60988 8100.00000 0 291830.647 -18577109.795 17502740.480 10 0 60988 9000.00000 0 1087174.491 -20432967.639 15257574.542 10 0 60988 9900.00000 0 1636627.646 -22068456.602 12716603.794 10 0 60988 10800.00000 0 1964496.974 -23428043.173 9929036.403 10 0 60988 11700.00000 0 2105207.268 -24464198.436 6948880.355 10 0 60988 12600.00000 0 2101603.734 -25139340.585 3833904.684 10 0 60988 13500.00000 0 2002897.573 -25427382.766 644525.472 10 0 60988 14400.00000 0 1862341.297 -25314820.764 -2557362.270 10 0 60988 15300.00000 0 1734732.122 -24801314.188 -5709584.322 10 0 60988 16200.00000 0 1673849.237 -23899735.743 -8750895.268 10 0 60988 17100.00000 0 1729933.871 -22635685.509 -11622171.049 10 0 60988 18000.00000 0 1947319.577 -21046489.573 -14267562.421 10 0 60988 18900.00000 0 2362313.987 -19179724.166 -16635586.383 10 0 60988 19800.00000 0 3001422.906 -17091326.406 -18680133.835 10 0 60988 20700.00000 0 3879993.237 -14843370.313 -20361373.302 10 0 60988 21600.00000 0 5001333.615 -12501600.836 -21646532.722 10 0 60988 22500.00000 0 6356351.498 -10132828.846 -22510543.718 10 0 60988 23400.00000 0 7923723.638 -7802295.934 -22936535.449 10 0 60988 24300.00000 0 9670594.305 -5571119.054 -22916168.195 10 0 60988 25200.00000 0 11553773.318 -3493921.663 -22449799.892 10 0 60988 26100.00000 0 13521384.714 -1616750.176 -21546482.155 10 0 60988 27000.00000 0 15514897.750 24637.555 -20223785.596 10 0 60988 27900.00000 0 17471455.612 1406040.706 -18507457.656 10 0 60988 28800.00000 0 19326404.406 2515588.545 -16430919.458 10 0 60988 29700.00000 0 21015916.353 3353986.762 -14034611.447 10 0 60988 30600.00000 0 22479596.907 3934228.020 -11365200.686 10 0 60988 31500.00000 0 23662965.997 4280780.410 -8474665.543 10 0 60988 32400.00000 0 24519708.872 4428289.678 -5419276.121 10 0 60988 33300.00000 0 25013601.670 4419851.756 -2258490.930 10 0 60988 34200.00000 0 25120030.686 4304930.317 946207.841 10 0 60988 35100.00000 0 24827041.593 4137009.073 4132516.957 10 0 60988 36000.00000 0 24135874.875 3971079.613 7238528.410 10 0 60988 36900.00000 0 23060965.550 3861072.301 10203934.988 10 0 60988 37800.00000 0 21629407.952 3857339.806 12971201.223 10 0 60988 38700.00000 0 19879908.818 4004300.235 15486676.872 10 0 60988 39600.00000 0 17861273.290 4338339.670 17701631.474 10 0 60988 40500.00000 0 15630487.762 4886062.603 19573190.491 10 0 60988 41400.00000 0 13250479.920 5662963.840 21065155.784 10 0 60988 42300.00000 0 10787649.352 6672577.523 22148695.581 10 0 60988 43200.00000 0 8309271.104 7906138.920 22802891.816 10 0 60988 44100.00000 0 5880879.271 9342773.243 23015135.418 10 0 60988 45000.00000 0 3563738.198 10950203.951 22781362.924 10 0 60988 45900.00000 0 1412504.792 12685951.553 22106130.611 10 0 60988 46800.00000 0 -526822.587 14498973.813 21002525.106 10 0 60988 47700.00000 0 -2218585.091 16331680.024 19491912.234 10 0 60988 48600.00000 0 -3638705.902 18122236.604 17603528.605 10 0 60988 49500.00000 0 -4775443.968 19807069.111 15373923.122 10 0 60988 50400.00000 0 -5629628.635 21323457.360 12846258.330 10 0 60988 51300.00000 0 -6214366.264 22612116.207 10069484.051 10 0 60988 52200.00000 0 -6554231.669 23619654.697 7097398.248 10 0 60988 53100.00000 0 -6683978.662 24300810.850 3987612.381 10 0 60988 54000.00000 0 -6646824.093 24620368.299 800440.555 10 0 60988 54900.00000 0 -6492377.765 24554673.857 -2402266.501 10 0 60988 55800.00000 0 -6274305.682 24092691.415 -5558320.188 10 0 60988 56700.00000 0 -6047825.533 23236546.858 -8606402.202 10 0 60988 57600.00000 0 -5867140.667 22001539.817 -11487258.399 10 0 60988 58500.00000 0 -5782921.672 20415620.491 -14144854.677 10 0 60988 59400.00000 0 -5839942.852 18518352.272 -16527471.937 10 0 60988 60300.00000 0 -6074974.595 16359402.540 -18588718.275 10 0 60988 61200.00000 0 -6515021.852 13996623.971 -20288438.186 10 0 60988 62100.00000 0 -7175984.481 11493805.947 -21593500.648 10 0 60988 63000.00000 0 -8061797.378 8918189.561 -22478450.372 10 0 60988 63900.00000 0 -9164088.042 6337849.724 -22926009.199 10 0 60988 64800.00000 0 -10462367.392 3819053.408 -22927417.607 10 0 60988 65700.00000 0 -11924747.020 1423704.088 -22482609.447 10 0 60988 66600.00000 0 -13509153.788 -793021.188 -21600216.234 10 0 60988 67500.00000 0 -15164991.531 -2784743.776 -20297400.701 10 0 60988 68400.00000 0 -16835180.616 -4515578.448 -18599522.633 10 0 60988 69300.00000 0 -18458489.892 -5961381.200 -16539643.358 10 0 60988 70200.00000 0 -19972063.049 -7110498.614 -14157878.508 10 0 60988 71100.00000 0 -21314032.956 -7963988.535 -11500611.734 10 0 60988 72000.00000 0 -22426113.614 -8535304.247 -8619585.022 10 0 60988 72900.00000 0 -23256060.217 -8849457.089 -5570883.784 10 0 60988 73800.00000 0 -23759893.323 -8941694.587 -2413837.163 10 0 60988 74700.00000 0 -23903793.130 -8855751.712 790144.212 10 0 60988 75600.00000 0 -23665583.941 -8641750.942 3978769.529 10 0 60988 76500.00000 0 -23035746.383 -8353841.530 7090083.953 10 0 60988 77400.00000 0 -22017915.022 -8047679.224 10063675.249 10 0 60988 78300.00000 0 -20628840.924 -7777854.090 12841846.947 10 0 60988 79200.00000 0 -18897821.220 -7595375.868 15370735.122 10 0 60988 80100.00000 0 -16865620.167 -7545323.450 17601347.260 10 0 60988 81000.00000 0 -14582927.240 -7664757.656 19490503.625 10 0 60988 81900.00000 0 -12108416.901 -7980985.035 21001663.744 10 0 60988 82800.00000 0 -9506490.862 -8510245.403 22105623.070 10 0 60988 83700.00000 0 -6844796.401 -9256877.875 22781067.546 10 0 60988 84600.00000 0 -4191623.052 -10213000.131 23014976.529 10 0 60988 85500.00000 0 -1613284.679 -11358714.308 22802867.285 10 0 60989 0.00000 0 828405.684 -12662831.022 22148877.201 10 0 60989 900.00000 0 3078466.361 -14084082.516 21065682.110 10 0 60989 1800.00000 0 5090784.627 -15572773.268 19574253.294 10 0 60989 2700.00000 0 6829782.756 -17072802.421 17703456.378 10 0 60989 3600.00000 0 8271641.429 -18523972.958 15489499.954 10 0 60989 4500.00000 0 9405032.140 -19864492.784 12975243.436 10 0 60989 5400.00000 0 10231328.800 -21033563.925 10209376.531 10 0 60989 6300.00000 0 10764290.439 -21973952.103 7245485.143 10 0 60989 7200.00000 0 11029228.713 -22634429.273 4141020.893 10 0 60989 8100.00000 0 11061695.475 -22971986.582 956193.456 10 0 60989 9000.00000 0 10905745.735 -22953724.371 -2247193.331 10 0 60989 9900.00000 0 10611849.314 -22558338.914 -5406939.192 10 0 60989 10800.00000 0 10234539.443 -21777142.277 -8461655.687 10 0 60989 11700.00000 0 9829897.868 -20614571.023 -11351961.338 10 0 60989 12600.00000 0 9452983.152 -19088160.877 -14021639.901 10 0 60989 13500.00000 0 9155311.462 -17227986.940 -16418738.787 10 0 60989 14400.00000 0 8982497.084 -15075591.440 -18496585.724 10 0 60989 15300.00000 0 8972153.281 -12682442.749 -20214703.362 10 0 60989 16200.00000 0 9152143.195 -10107989.055 -21539603.568 10 0 60989 17100.00000 0 9539255.695 -7417387.222 -22445445.589 10 0 60989 18000.00000 0 10138363.178 -4679001.071 -22914544.934 10 0 60989 18900.00000 0 10942097.889 -1961773.015 -22937722.806 10 0 60989 19800.00000 0 11931061.421 667421.705 -22514489.019 10 0 60989 20700.00000 0 13074559.431 3146328.099 -21653054.602 10 0 60989 21600.00000 0 14331831.324 5419665.695 -20370173.614 10 0 60989 22500.00000 0 15653723.619 7441186.157 -18690817.015 10 0 60989 23400.00000 0 16984736.750 9175348.842 -16647684.826 10 0 60989 24300.00000 0 18265359.097 10598545.035 -14280566.017 10 0 60989 25200.00000 0 19434589.687 11699820.615 -11635558.675 10 0 60989 26100.00000 0 20432542.796 12481068.090 -8764165.957 10 0 60989 27000.00000 0 21203024.143 12956681.463 -5722285.895 10 0 60989 27900.00000 0 21695969.443 13152690.182 -2569115.380 10 0 60989 28800.00000 0 21869641.962 13105410.470 634009.507 10 0 60989 29700.00000 0 21692495.994 12859672.801 3824813.381 10 0 60989 30600.00000 0 21144627.497 12466702.124 6941297.502 10 0 60989 31500.00000 0 20218750.709 11981741.946 9922947.371 10 0 60989 32400.00000 0 18920659.836 11461523.922 12711908.052 10 0 60989 33300.00000 0 17269156.600 10961690.736 15254104.214 10 0 60989 34200.00000 0 15295447.056 10534281.531 17500283.286 10 0 60989 35100.00000 0 13042033.138 10225386.074 19406962.042 10 0 60989 36000.00000 0 10561145.363 10073066.218 20937259.106 10 0 60989 36900.00000 0 7912781.958 10105631.643 22061598.289 10 0 60989 37800.00000 0 5162435.580 10340341.739 22758270.369 10 0 60989 38700.00000 0 2378601.354 10782587.497 23013843.620 10 0 60989 39600.00000 0 -369831.392 11425587.285 22823416.167 10 0 60989 40500.00000 0 -3016196.891 12250608.988 22190706.088 10 0 60989 41400.00000 0 -5498573.221 13227709.352 21127977.971 10 0 60989 42300.00000 0 -7762102.253 14316959.931 19655807.372 10 0 60989 43200.00000 0 -9761014.613 15470109.048 17802687.438 10 0 60989 44100.00000 0 -11460277.118 16632611.063 15604484.607 10 0 60989 45000.00000 0 -12836795.392 17745938.888 13103753.037 10 0 60989 45900.00000 0 -13880122.648 18750083.750 10348919.978 10 0 60989 46800.00000 0 -14592645.791 19586138.057 7393356.803 10 0 60989 47700.00000 0 -14989241.553 20198853.348 4294352.734 10 0 60989 48600.00000 0 -15096417.375 20539065.889 1112010.406 10 0 60989 49500.00000 0 -14950973.263 20565887.594 -2091915.868 10 0 60989 50400.00000 0 -14598240.971 20248569.293 -5255216.763 10 0 60989 51300.00000 0 -14089974.797 19567956.854 -8316436.301 10 0 60989 52200.00000 0 -13481983.089 18517477.431 -11216068.194 10 0 60989 53100.00000 0 -12831600.701 17103612.787 -13897716.445 10 0 60989 54000.00000 0 -12195109.545 15345838.066 -16309197.178 10 0 60989 54900.00000 0 -11625216.684 13276026.900 -18403559.728 10 0 60989 55800.00000 0 -11168697.156 10937346.217 -20140006.593 10 0 60989 56700.00000 0 -10864301.768 8382685.617 -21484693.917 10 0 60989 57600.00000 0 -10741018.929 5672685.787 -22411396.549 10 0 60989 58500.00000 0 -10816764.706 2873447.406 -22902024.384 10 0 60989 59400.00000 0 -11097557.046 54015.380 -22946979.683 10 0 60989 60300.00000 0 -11577209.728 -2716257.208 -22545348.170 10 0 60989 61200.00000 0 -12237559.509 -5370355.947 -21704919.911 10 0 60989 62100.00000 0 -13049217.339 -7846152.725 -20442039.386 10 0 60989 63000.00000 0 -13972812.287 -10088748.279 -18781287.416 10 0 60989 63900.00000 0 -14960675.762 -12052512.282 -16755001.025 10 0 60989 64800.00000 0 -15958894.909 -13702736.305 -14402640.519 10 0 60989 65700.00000 0 -16909648.192 -15016831.326 -11770016.181 10 0 60989 66600.00000 0 -17753724.069 -15985020.579 -8908389.935 10 0 60989 67500.00000 0 -18433115.799 -16610499.981 -5873469.937 10 0 60989 68400.00000 0 -18893582.054 -16909060.902 -2724318.286 10 0 60989 69300.00000 0 -19087064.530 -16908192.833 477806.034 10 0 60989 70200.00000 0 -18973859.835 -16645705.570 3670645.619 10 0 60989 71100.00000 0 -18524453.526 -16167930.792 6792160.361 10 0 60989 72000.00000 0 -17720938.647 -15527580.586 9781736.011 10 0 60989 72900.00000 0 -16557958.894 -14781354.698 12581361.615 10 0 60989 73800.00000 0 -15043136.744 -13987398.552 15136752.770 10 0 60989 74700.00000 0 -13196968.669 -13202719.911 17398399.010 10 0 60989 75600.00000 0 -11052191.922 -12480673.246 19322515.532 10 0 60989 76500.00000 0 -8652649.341 -11868617.561 20871881.650 10 0 60989 77400.00000 0 -6051699.360 -11405845.619 22016550.784 10 0 60989 78300.00000 0 -3310237.002 -11121870.789 22734419.415 10 0 60989 79200.00000 0 -494407.363 -11035142.539 23011645.219 10 0 60989 80100.00000 0 2326894.506 -11152243.576 22842907.295 10 0 60989 81000.00000 0 5084634.922 -11467601.611 22231504.273 10 0 60989 81900.00000 0 7712257.382 -11963727.404 21189288.858 10 0 60989 82800.00000 0 10148196.010 -12611969.011 19736440.117 10 0 60989 83700.00000 0 12338183.988 -13373750.897 17901077.651 10 0 60989 84600.00000 0 14237262.685 -14202246.455 15718724.401 10 0 60989 85500.00000 0 15811409.228 -15044414.525 13231627.641 99